RUM5398 SBKP-SBPA

Flight info

Callsign RUM5398
Flight time 1h 18m
Altitude 34000
Route OSUDO4A SOVSI DCT ARTUT UZ38 VUKMO UBREG1B
Aircraft A320/M-SDE3FGHIRWY/LB1

Departure

Time 2026-05-05 12:25
Airport Viracopos International Airport (SBKP)

Arrival

Time 2026-05-05 13:43
Airport Porto Alegre-Salgado Filho International Airport (SBPA)
Time Latitude Longitude Altitude Speed Heading
2026-05-05 12:02 -23.00377 -47.14892 2151 ft 0 kts 218°
2026-05-05 12:19 -23.00371 -47.14887 2157 ft 4 kts 222°
2026-05-05 12:19 -23.00356 -47.14865 2157 ft 4 kts 260°
2026-05-05 12:19 -23.00359 -47.14838 2152 ft 4 kts 301°
2026-05-05 12:19 -23.00370 -47.14820 2157 ft 0 kts 308°
2026-05-05 12:21 -23.00369 -47.14823 2153 ft 3 kts 308°
2026-05-05 12:22 -23.00338 -47.14866 2153 ft 8 kts 307°
2026-05-05 12:22 -23.00276 -47.14952 2151 ft 17 kts 306°
2026-05-05 12:22 -23.00194 -47.15011 2155 ft 14 kts 18°
2026-05-05 12:22 -23.00115 -47.14949 2152 ft 15 kts 37°
2026-05-05 12:23 -23.00026 -47.14868 2149 ft 17 kts 54°
2026-05-05 12:23 -22.99944 -47.14778 2152 ft 14 kts 38°
2026-05-05 12:23 -22.99933 -47.14767 2156 ft 1 kts 41°
2026-05-05 12:23 -22.99904 -47.14723 2151 ft 9 kts 60°
2026-05-05 12:24 -22.99894 -47.14653 2156 ft 13 kts 98°
2026-05-05 12:24 -22.99913 -47.14607 2154 ft 0 kts 126°
2026-05-05 12:24 -22.99913 -47.14606 2156 ft 3 kts 126°
2026-05-05 12:24 -23.00096 -47.14349 2157 ft 80 kts 128°
2026-05-05 12:25 -23.00566 -47.13694 2153 ft 139 kts 128°
2026-05-05 12:25 -23.01244 -47.12725 2283 ft 173 kts 126°
2026-05-05 12:25 -23.01964 -47.11719 3064 ft 167 kts 130°
2026-05-05 12:25 -23.02934 -47.11047 3716 ft 172 kts 174°
2026-05-05 12:26 -23.04150 -47.11256 4094 ft 190 kts 201°
2026-05-05 12:26 -23.05455 -47.11753 4340 ft 212 kts 199°
2026-05-05 12:26 -23.06929 -47.12302 4553 ft 237 kts 198°
2026-05-05 12:26 -23.08576 -47.12908 4880 ft 262 kts 198°
2026-05-05 12:27 -23.10354 -47.13578 5482 ft 275 kts 203°
2026-05-05 12:27 -23.11945 -47.14745 6260 ft 280 kts 221°
2026-05-05 12:27 -23.13432 -47.16143 7114 ft 283 kts 221°
2026-05-05 12:27 -23.14906 -47.17545 7927 ft 287 kts 221°
2026-05-05 12:28 -23.16412 -47.18982 8724 ft 290 kts 221°
2026-05-05 12:28 -23.17937 -47.20437 9490 ft 293 kts 221°
2026-05-05 12:28 -23.19512 -47.21865 10232 ft 296 kts 214°
2026-05-05 12:28 -23.21347 -47.22913 10882 ft 305 kts 200°
2026-05-05 12:29 -23.23474 -47.23558 11093 ft 328 kts 194°
2026-05-05 12:29 -23.24970 -47.23957 11379 ft 337 kts 193°
2026-05-05 12:29 -23.27268 -47.24565 12026 ft 343 kts 194°
2026-05-05 12:29 -23.29599 -47.25185 12764 ft 346 kts 193°
2026-05-05 12:30 -23.32712 -47.26019 13715 ft 349 kts 194°
2026-05-05 12:30 -23.35083 -47.26659 14388 ft 353 kts 194°
2026-05-05 12:30 -23.37482 -47.27308 15034 ft 356 kts 194°
2026-05-05 12:30 -23.39111 -47.27750 15475 ft 358 kts 194°
2026-05-05 12:31 -23.41516 -47.28403 16114 ft 361 kts 194°
2026-05-05 12:31 -23.43972 -47.29071 16738 ft 364 kts 194°
2026-05-05 12:31 -23.46446 -47.29746 17172 ft 368 kts 194°
2026-05-05 12:31 -23.48929 -47.30425 17274 ft 368 kts 194°
2026-05-05 12:32 -23.51413 -47.31101 17298 ft 367 kts 194°
2026-05-05 12:32 -23.53900 -47.31776 17300 ft 367 kts 194°
2026-05-05 12:32 -23.56367 -47.32445 17696 ft 371 kts 194°
2026-05-05 12:32 -23.58883 -47.33128 18327 ft 373 kts 194°
2026-05-05 12:33 -23.61415 -47.33816 18901 ft 376 kts 194°
2026-05-05 12:33 -23.63970 -47.34510 19459 ft 379 kts 194°
2026-05-05 12:33 -23.66545 -47.35207 19989 ft 382 kts 194°
2026-05-05 12:33 -23.69134 -47.35905 20500 ft 385 kts 194°
2026-05-05 12:34 -23.71741 -47.36610 20990 ft 387 kts 194°
2026-05-05 12:34 -23.74369 -47.37324 21480 ft 390 kts 194°
2026-05-05 12:34 -23.77019 -47.38047 21948 ft 393 kts 194°
2026-05-05 12:34 -23.79683 -47.38777 22416 ft 396 kts 194°
2026-05-05 12:35 -23.82329 -47.39501 22866 ft 398 kts 194°
2026-05-05 12:35 -23.85028 -47.40238 23306 ft 401 kts 194°
2026-05-05 12:35 -23.87747 -47.40979 23724 ft 404 kts 194°
2026-05-05 12:35 -23.90487 -47.41728 24124 ft 406 kts 194°
2026-05-05 12:36 -23.93242 -47.42482 24526 ft 409 kts 194°
2026-05-05 12:36 -23.95976 -47.43228 24928 ft 411 kts 194°
2026-05-05 12:36 -23.98759 -47.43988 25339 ft 413 kts 194°
2026-05-05 12:36 -24.01555 -47.44755 25737 ft 415 kts 194°
2026-05-05 12:37 -24.04366 -47.45526 26128 ft 417 kts 194°
2026-05-05 12:37 -24.07187 -47.46296 26510 ft 419 kts 194°
2026-05-05 12:37 -24.10019 -47.47074 26882 ft 420 kts 196°
2026-05-05 12:37 -24.12792 -47.48123 27246 ft 422 kts 201°
2026-05-05 12:38 -24.15509 -47.49239 27600 ft 424 kts 201°
2026-05-05 12:38 -24.18283 -47.50380 27963 ft 426 kts 201°
2026-05-05 12:38 -24.21063 -47.51526 28317 ft 427 kts 201°
2026-05-05 12:38 -24.23860 -47.52682 28675 ft 429 kts 201°
2026-05-05 12:39 -24.26636 -47.53826 29009 ft 431 kts 201°
2026-05-05 12:39 -24.29449 -47.54985 29343 ft 433 kts 201°
2026-05-05 12:39 -24.32279 -47.56144 29666 ft 434 kts 201°
2026-05-05 12:39 -24.35114 -47.57306 29984 ft 436 kts 201°
2026-05-05 12:40 -24.37953 -47.58474 30287 ft 437 kts 201°
2026-05-05 12:40 -24.40822 -47.59656 30575 ft 439 kts 201°
2026-05-05 12:40 -24.43651 -47.60822 30856 ft 440 kts 201°
2026-05-05 12:40 -24.46561 -47.62021 31134 ft 441 kts 201°
2026-05-05 12:41 -24.49406 -47.63193 31402 ft 443 kts 201°
2026-05-05 12:41 -24.52308 -47.64390 31689 ft 443 kts 201°
2026-05-05 12:41 -24.55193 -47.65580 32067 ft 441 kts 201°
2026-05-05 12:41 -24.58073 -47.66770 32442 ft 440 kts 201°
2026-05-05 12:42 -24.60899 -47.67938 32804 ft 439 kts 201°
2026-05-05 12:42 -24.63754 -47.69119 33174 ft 438 kts 201°
2026-05-05 12:42 -24.66604 -47.70301 33524 ft 436 kts 202°
2026-05-05 12:42 -24.69441 -47.71479 33868 ft 435 kts 202°
2026-05-05 12:43 -24.72271 -47.72652 34192 ft 434 kts 202°
2026-05-05 12:43 -24.75060 -47.73803 34287 ft 430 kts 201°
2026-05-05 12:43 -24.80612 -47.76094 34302 ft 422 kts 202°
2026-05-05 12:44 -24.86067 -47.78367 34302 ft 421 kts 202°
2026-05-05 12:44 -24.91553 -47.80648 34302 ft 421 kts 202°
2026-05-05 12:45 -24.97050 -47.82933 34304 ft 421 kts 202°
2026-05-05 12:45 -25.02504 -47.85196 34301 ft 421 kts 202°
2026-05-05 12:46 -25.07984 -47.87482 34293 ft 420 kts 202°
2026-05-05 12:46 -25.13456 -47.89772 34288 ft 420 kts 202°
2026-05-05 12:47 -25.18937 -47.92062 34291 ft 420 kts 202°
2026-05-05 12:47 -25.24375 -47.94328 34291 ft 420 kts 202°
2026-05-05 12:48 -25.29855 -47.96615 34287 ft 420 kts 202°
2026-05-05 12:48 -25.35324 -47.98907 34288 ft 420 kts 202°
2026-05-05 12:49 -25.40804 -48.01199 34278 ft 420 kts 202°
2026-05-05 12:49 -25.46278 -48.03493 34233 ft 420 kts 202°
2026-05-05 12:50 -25.51713 -48.05772 34234 ft 420 kts 202°
2026-05-05 12:50 -25.57186 -48.08075 34230 ft 420 kts 202°
2026-05-05 12:51 -25.62586 -48.10435 34230 ft 419 kts 208°
2026-05-05 12:51 -25.67540 -48.13794 34227 ft 418 kts 214°
2026-05-05 12:52 -25.72439 -48.17284 34231 ft 418 kts 214°
2026-05-05 12:52 -25.77350 -48.20782 34216 ft 418 kts 213°
2026-05-05 12:53 -25.82216 -48.24248 34215 ft 418 kts 213°
2026-05-05 12:53 -25.87129 -48.27752 34214 ft 418 kts 213°
2026-05-05 12:54 -25.94473 -48.33014 34220 ft 418 kts 214°
2026-05-05 12:55 -25.99335 -48.36499 34200 ft 418 kts 214°
2026-05-05 12:55 -26.04225 -48.39988 34199 ft 418 kts 213°
2026-05-05 12:56 -26.09123 -48.43498 34194 ft 418 kts 214°
2026-05-05 12:56 -26.14007 -48.47006 34195 ft 417 kts 214°
2026-05-05 12:57 -26.18854 -48.50490 34188 ft 417 kts 214°
2026-05-05 12:57 -26.23730 -48.53999 34183 ft 417 kts 214°
2026-05-05 12:58 -26.28618 -48.57521 34177 ft 417 kts 214°
2026-05-05 12:58 -26.33474 -48.61017 34175 ft 417 kts 214°
2026-05-05 12:59 -26.38356 -48.64541 34173 ft 417 kts 214°
2026-05-05 12:59 -26.43228 -48.68065 34172 ft 417 kts 214°
2026-05-05 13:00 -26.50508 -48.73361 34167 ft 417 kts 214°
2026-05-05 13:01 -26.60199 -48.80528 34163 ft 417 kts 214°
2026-05-05 13:01 -26.64913 -48.84012 34165 ft 418 kts 214°
2026-05-05 13:02 -26.69848 -48.87637 34166 ft 417 kts 214°
2026-05-05 13:02 -26.74723 -48.91192 34161 ft 417 kts 214°
2026-05-05 13:03 -26.79556 -48.94722 34157 ft 417 kts 214°
2026-05-05 13:03 -26.84422 -48.98279 34164 ft 417 kts 214°
2026-05-05 13:04 -26.89282 -49.01835 34173 ft 417 kts 214°
2026-05-05 13:04 -26.94123 -49.05383 34178 ft 417 kts 214°
2026-05-05 13:05 -26.98995 -49.08962 34178 ft 417 kts 214°
2026-05-05 13:05 -27.03826 -49.12498 34177 ft 417 kts 214°
2026-05-05 13:06 -27.08691 -49.16072 34176 ft 417 kts 214°
2026-05-05 13:06 -27.13548 -49.19653 34174 ft 417 kts 214°
2026-05-05 13:07 -27.18370 -49.23210 34171 ft 417 kts 214°
2026-05-05 13:07 -27.23227 -49.26791 34169 ft 417 kts 214°
2026-05-05 13:08 -27.28049 -49.30356 34167 ft 416 kts 214°
2026-05-05 13:08 -27.32891 -49.33935 34165 ft 416 kts 214°
2026-05-05 13:09 -27.37743 -49.37529 34164 ft 416 kts 214°
2026-05-05 13:09 -27.42556 -49.41095 34160 ft 416 kts 214°
2026-05-05 13:10 -27.47401 -49.44691 34159 ft 416 kts 214°
2026-05-05 13:10 -27.52238 -49.48282 34158 ft 416 kts 214°
2026-05-05 13:11 -27.57050 -49.51855 34150 ft 416 kts 214°
2026-05-05 13:11 -27.61893 -49.55443 34152 ft 416 kts 214°
2026-05-05 13:12 -27.66740 -49.59036 34158 ft 416 kts 214°
2026-05-05 13:12 -27.71552 -49.62608 34157 ft 416 kts 214°
2026-05-05 13:13 -27.76404 -49.66193 34152 ft 416 kts 214°
2026-05-05 13:13 -27.81272 -49.69675 34146 ft 416 kts 213°
2026-05-05 13:14 -27.86181 -49.73139 34148 ft 415 kts 213°
2026-05-05 13:14 -27.91082 -49.76624 34143 ft 415 kts 213°
2026-05-05 13:15 -27.95935 -49.80096 34143 ft 415 kts 214°
2026-05-05 13:15 -28.00818 -49.83594 34140 ft 415 kts 213°
2026-05-05 13:16 -28.05715 -49.87092 34141 ft 415 kts 213°
2026-05-05 13:16 -28.10594 -49.90596 34140 ft 414 kts 214°
2026-05-05 13:17 -28.15437 -49.94077 34134 ft 414 kts 214°
2026-05-05 13:17 -28.20282 -49.97563 34131 ft 414 kts 214°
2026-05-05 13:18 -28.25152 -50.01069 34133 ft 414 kts 214°
2026-05-05 13:18 -28.30035 -50.04582 34188 ft 416 kts 214°
2026-05-05 13:19 -28.34918 -50.08106 34201 ft 416 kts 214°
2026-05-05 13:19 -28.39801 -50.11632 34216 ft 416 kts 214°
2026-05-05 13:20 -28.44684 -50.15164 34214 ft 424 kts 214°
2026-05-05 13:20 -28.49685 -50.18783 34225 ft 427 kts 214°
2026-05-05 13:21 -28.54705 -50.22414 34221 ft 428 kts 214°
2026-05-05 13:21 -28.59697 -50.26028 34226 ft 427 kts 214°
2026-05-05 13:22 -28.62212 -50.27854 33764 ft 427 kts 214°
2026-05-05 13:22 -28.63892 -50.29077 32777 ft 439 kts 214°
2026-05-05 13:22 -28.66517 -50.30991 31394 ft 453 kts 214°
2026-05-05 13:22 -28.69192 -50.32943 30182 ft 461 kts 214°
2026-05-05 13:23 -28.72798 -50.35580 28600 ft 468 kts 214°
2026-05-05 13:23 -28.74626 -50.36985 27776 ft 471 kts 216°
2026-05-05 13:23 -28.77296 -50.39167 26529 ft 474 kts 217°
2026-05-05 13:23 -28.79945 -50.41451 25365 ft 477 kts 218°
2026-05-05 13:24 -28.82518 -50.43731 25173 ft 456 kts 219°
2026-05-05 13:24 -28.84941 -50.45880 25047 ft 437 kts 219°
2026-05-05 13:24 -28.87291 -50.47943 24905 ft 412 kts 218°
2026-05-05 13:24 -28.89504 -50.49854 24783 ft 384 kts 218°
2026-05-05 13:25 -28.91583 -50.51631 24426 ft 366 kts 218°
2026-05-05 13:25 -28.93596 -50.53346 23776 ft 357 kts 218°
2026-05-05 13:25 -28.95574 -50.55034 23049 ft 352 kts 218°
2026-05-05 13:25 -28.97523 -50.56698 22322 ft 348 kts 218°
2026-05-05 13:26 -28.99432 -50.58330 21618 ft 345 kts 218°
2026-05-05 13:26 -29.01343 -50.59966 20899 ft 340 kts 218°
2026-05-05 13:26 -29.03238 -50.61590 20222 ft 340 kts 218°
2026-05-05 13:26 -29.05127 -50.63212 19824 ft 337 kts 218°
2026-05-05 13:27 -29.06976 -50.64800 19426 ft 335 kts 218°
2026-05-05 13:27 -29.08834 -50.66396 19024 ft 333 kts 218°
2026-05-05 13:27 -29.10692 -50.67971 18620 ft 331 kts 214°
2026-05-05 13:27 -29.12742 -50.69142 18225 ft 330 kts 200°
2026-05-05 13:28 -29.14992 -50.69697 17822 ft 332 kts 186°
2026-05-05 13:28 -29.17294 -50.69822 17433 ft 331 kts 184°
2026-05-05 13:28 -29.19587 -50.69936 17049 ft 329 kts 184°
2026-05-05 13:28 -29.21874 -50.70056 16671 ft 328 kts 184°
2026-05-05 13:29 -29.24150 -50.70180 16300 ft 327 kts 185°
2026-05-05 13:29 -29.26419 -50.70304 15946 ft 325 kts 184°
2026-05-05 13:29 -29.28646 -50.70426 15596 ft 323 kts 184°
2026-05-05 13:29 -29.30883 -50.70541 15105 ft 320 kts 184°
2026-05-05 13:30 -29.33105 -50.70643 14487 ft 320 kts 184°
2026-05-05 13:30 -29.35326 -50.70736 14164 ft 317 kts 184°
2026-05-05 13:30 -29.37531 -50.70824 13805 ft 317 kts 184°
2026-05-05 13:30 -29.39726 -50.70913 13467 ft 315 kts 184°
2026-05-05 13:31 -29.41915 -50.71008 13112 ft 313 kts 184°
2026-05-05 13:31 -29.44057 -50.71098 12738 ft 311 kts 184°
2026-05-05 13:31 -29.46216 -50.71191 12363 ft 310 kts 184°
2026-05-05 13:31 -29.48376 -50.71289 11969 ft 309 kts 184°
2026-05-05 13:32 -29.50522 -50.71385 11604 ft 308 kts 184°
2026-05-05 13:32 -29.52662 -50.71479 11241 ft 306 kts 184°
2026-05-05 13:32 -29.54788 -50.71573 10872 ft 305 kts 184°
2026-05-05 13:32 -29.56906 -50.71662 10495 ft 303 kts 184°
2026-05-05 13:33 -29.58984 -50.71748 10293 ft 295 kts 184°
2026-05-05 13:33 -29.61029 -50.71833 9957 ft 292 kts 184°
2026-05-05 13:33 -29.63056 -50.71920 9571 ft 291 kts 184°
2026-05-05 13:33 -29.65049 -50.72007 9192 ft 290 kts 184°
2026-05-05 13:34 -29.67060 -50.72096 8810 ft 288 kts 184°
2026-05-05 13:34 -29.69063 -50.72186 8440 ft 286 kts 184°
2026-05-05 13:34 -29.71032 -50.72375 8045 ft 283 kts 194°
2026-05-05 13:34 -29.72879 -50.73106 7664 ft 279 kts 209°
2026-05-05 13:35 -29.74474 -50.74352 7293 ft 275 kts 224°
2026-05-05 13:35 -29.75841 -50.75889 6915 ft 275 kts 226°
2026-05-05 13:35 -29.77197 -50.77432 6539 ft 273 kts 226°
2026-05-05 13:35 -29.78543 -50.78963 6143 ft 271 kts 226°
2026-05-05 13:36 -29.79883 -50.80481 5738 ft 269 kts 226°
2026-05-05 13:36 -29.81197 -50.81971 5315 ft 268 kts 226°
2026-05-05 13:36 -29.82528 -50.83479 4890 ft 268 kts 226°
2026-05-05 13:36 -29.83859 -50.84988 4509 ft 267 kts 226°
2026-05-05 13:37 -29.85178 -50.86485 4111 ft 265 kts 225°
2026-05-05 13:37 -29.86494 -50.87981 4030 ft 266 kts 226°
2026-05-05 13:37 -29.87819 -50.89488 4029 ft 268 kts 226°
2026-05-05 13:37 -29.89142 -50.90996 4025 ft 267 kts 226°
2026-05-05 13:38 -29.90503 -50.92363 4026 ft 251 kts 214°
2026-05-05 13:38 -29.91982 -50.93225 3994 ft 234 kts 202°
2026-05-05 13:38 -29.93479 -50.93888 3870 ft 227 kts 202°
2026-05-05 13:38 -29.94953 -50.94542 3619 ft 226 kts 202°
2026-05-05 13:39 -29.96411 -50.95196 3376 ft 224 kts 202°
2026-05-05 13:39 -29.97853 -50.95865 3137 ft 222 kts 208°
2026-05-05 13:39 -29.99038 -50.96959 2880 ft 218 kts 233°
2026-05-05 13:39 -29.99698 -50.98497 2672 ft 212 kts 258°
2026-05-05 13:40 -29.99792 -51.00140 2436 ft 204 kts 272°
2026-05-05 13:40 -29.99757 -51.01755 2214 ft 194 kts 272°
2026-05-05 13:40 -29.99728 -51.03258 1972 ft 180 kts 272°
2026-05-05 13:40 -29.99700 -51.04631 1784 ft 162 kts 272°
2026-05-05 13:41 -29.99676 -51.05873 1591 ft 149 kts 272°
2026-05-05 13:41 -29.99654 -51.07038 1414 ft 145 kts 272°
2026-05-05 13:41 -29.99634 -51.08197 1216 ft 143 kts 271°
2026-05-05 13:41 -29.99613 -51.09344 1024 ft 142 kts 271°
2026-05-05 13:42 -29.99592 -51.10485 827 ft 142 kts 271°
2026-05-05 13:42 -29.99572 -51.11620 642 ft 141 kts 271°
2026-05-05 13:42 -29.99551 -51.12751 453 ft 141 kts 271°
2026-05-05 13:42 -29.99543 -51.13878 261 ft 140 kts 276°
2026-05-05 13:43 -29.99516 -51.15003 83 ft 140 kts 275°
2026-05-05 13:43 -29.99470 -51.16018 26 ft 104 kts 267°
2026-05-05 13:43 -29.99478 -51.16651 21 ft 55 kts 273°
2026-05-05 13:43 -29.99463 -51.16992 18 ft 40 kts 273°
2026-05-05 13:44 -29.99461 -51.17316 19 ft 38 kts 272°
2026-05-05 13:44 -29.99458 -51.17430 19 ft 0 kts 272°
2026-05-05 13:44 -29.99118 -51.17348 20 ft 0 kts